#timestamp,LO_Frequency,Hit,StdDev 
1568930415.6,286046994.5,N
1568930435.4,286046994.8,N
1568930455.3,286046994.8,N
1568930475.1,286046994.0,N
1568930476.0,286046994.0,N
1568930495.8,286046996.4,N
1568930515.7,286046993.6,N
1568930535.5,286046991.7,N
1568930555.3,286046996.3,N
1568930575.2,286046994.7,N
1568930595.0,286046993.3,N
1568930595.9,286046993.3,N
1568930615.8,286046993.6,N
1568930635.6,286046993.9,N
1568930655.4,286046996.8,N
1568930675.3,286046996.5,N
1568930695.1,286046999.5,N
1568930715.8,286046998.6,N
1568930735.7,286046998.2,N
1568930755.5,286047000.9,N
1568930775.4,286046998.5,N
1568930795.2,286047001.0,N
1568930815.0,286047000.6,N
1568930815.9,286047000.6,N
1568930835.8,286047000.9,N
1568930855.6,286047002.4,N
1568930875.4,286047002.1,N
1568930895.3,286047001.3,N
1568930915.1,286047003.6,N
1568930935.9,286047003.3,N
1568930955.7,286047004.0,N
1568930975.5,286047004.2,N
1568930995.4,286047005.6,N
1568931015.2,286047004.7,N
1568931035.0,286047007.4,N
1568931035.9,286047007.4,N
1568931055.8,286047010.8,N
1568931075.6,286047009.8,N
1568931095.5,286047011.1,N
1568931115.3,286047011.6,N
1568931135.1,286047012.6,N
1568931155.9,286047015.1,N
1568931175.7,286047015.0,N
1568931195.5,286047012.7,N
1568931215.4,286047015.2,N
1568931235.2,286047013.0,N
1568931255.1,286047012.9,N
1568931256.0,286047012.9,N
1568931275.8,286047013.6,N
1568931295.6,286047010.7,N
1568931315.5,286047010.5,N
1568931335.3,286047008.4,N
1568931355.1,286047010.1,N
1568931375.9,286047008.5,N
1568931395.7,286047008.9,N
1568931415.6,286047009.2,N
1568931435.4,286047007.1,N
1568931455.2,286047006.7,N
1568931475.1,286047008.5,N
1568931476.0,286047008.5,N
1568931495.8,286047006.9,N
1568931515.6,286047006.0,N
1568931535.5,286047001.4,N
1568931555.3,286047000.3,N
1568931575.2,286046998.8,N
1568931595.9,286046999.3,N
1568931615.7,286046998.5,N
1568931635.6,286046998.7,N
1568931655.4,286046998.4,N
1568931675.2,286046999.1,N
1568931695.1,286047001.1,N
1568931696.0,286047001.1,N
1568931715.8,286046999.9,N
1568931735.7,286047004.0,N
1568931755.5,286047005.3,N
1568931775.3,286047006.2,N
1568931795.2,286047010.5,N
1568931815.9,286047009.7,N
1568931835.7,286047009.4,N
1568931855.6,286047011.5,N
1568931875.4,286047011.6,N
1568931895.2,286047010.0,N
1568931915.1,286047007.7,N
1568931916.0,286047007.7,N
1568931935.8,286047011.9,N
1568931955.7,286047012.2,N
1568931975.5,286047012.4,N
1568931995.3,286047010.3,N
1568932015.2,286047010.8,N
1568932035.0,286047007.7,N
1568932035.9,286047007.7,N
1568932055.7,286047010.0,N
1568932075.6,286047009.3,N
1568932095.4,286047014.0,N
1568932115.3,286047015.0,N
1568932135.1,286047014.5,N
1568932136.0,286047014.5,N
1568932155.8,286047018.3,Y
1568932175.7,286047012.1,P
1568932195.5,286047011.4,P
1568932215.4,286047013.3,P
1568932235.2,286047013.6,Y
1568932255.0,286047002.5,P
1568932255.9,286047002.5,N
1568932275.8,286047002.4,N
1568932295.6,286047001.6,N
1568932315.4,286047002.6,N
1568932335.3,286046999.8,N
1568932355.1,286046999.9,N
1568932375.9,286047000.5,N
1568932395.7,286046997.1,N
1568932415.5,286046995.9,N
1568932435.4,286046995.2,N
1568932455.2,286046994.1,N
1568932475.0,286046994.4,N
1568932475.9,286046994.4,N
1568932495.8,286046993.3,N
1568932515.6,286046997.8,N
1568932535.5,286046997.3,N
1568932555.3,286046997.4,N
1568932575.1,286046995.7,N
1568932595.9,286046994.2,N
1568932615.7,286046992.3,N
1568932635.5,286046990.4,N
1568932655.4,286046990.8,N
1568932675.2,286046988.0,N
1568932695.0,286046988.3,N
1568932696.0,286046988.3,N
1568932715.8,286046987.2,N
1568932735.6,286046988.8,N
1568932755.5,286046989.5,N
1568932775.3,286046985.6,N
1568932795.1,286046986.0,N
1568932815.9,286046984.9,N
1568932835.7,286046984.0,Y
1568932855.6,286046990.8,P
1568932875.4,286046991.2,P
1568932895.2,286046990.3,P
1568932915.1,286046991.2,Y
1568932916.0,286046991.2,P
1568932935.8,286046997.2,P
1568932955.7,286046995.0,N
1568932975.5,286046995.4,N
1568932995.3,286046998.0,N
1568933015.2,286046995.5,N
1568933035.9,286046993.4,N
1568933055.7,286046995.9,N
1568933075.6,286046995.8,N
1568933095.4,286046993.8,N
1568933115.3,286046993.3,Y
1568933135.1,286046998.6,P
1568933136.0,286046998.6,N
1568933155.8,286047011.9,P
1568933175.7,286046998.3,N
1568933195.5,286047002.1,N
1568933215.3,286047000.6,N
1568933235.2,286046998.9,N
1568933255.0,286046996.9,N
1568933255.9,286046996.9,N
1568933275.8,286046995.2,N
1568933295.6,286046996.4,N
1568933315.4,286046991.9,N
1568933335.3,286046992.5,N
1568933355.1,286046991.2,N
1568933375.8,286046986.9,N
1568933395.7,286046987.8,N
1568933415.5,286046985.5,N
1568933435.3,286046986.6,N
1568933455.2,286046986.7,N
1568933475.0,286046984.0,N
1568933475.9,286046984.0,N
1568933495.8,286046984.4,N
1568933515.6,286046982.3,N
1568933535.4,286046983.5,N
1568933555.3,286046980.9,N
1568933575.1,286046979.7,N
1568933595.9,286046980.4,N
1568933615.7,286046976.1,Y
1568933635.5,286046986.8,P
1568933655.4,286046985.4,P
1568933675.2,286046986.4,P
1568933695.0,286046985.0,Y
1568933695.9,286046985.0,P
1568933715.8,286046995.0,P
1568933735.6,286046994.0,N
1568933755.5,286046994.7,N
1568933775.3,286046992.2,N
1568933795.1,286046992.7,N
1568933815.9,286046991.1,N
1568933835.7,286046991.4,N
1568933855.5,286046987.0,Y
1568933875.4,286046995.0,P
1568933895.2,286046999.4,N
1568933915.1,286046998.1,N
1568933916.0,286046998.1,N
1568933935.8,286047000.1,N
1568933955.6,286047000.0,N
1568933975.5,286047001.9,N
1568933995.3,286047003.2,N
